Vorticity
8 8 8 10 10 12 13 13 12 10 10 10 6 3 3 7 4 -3 0 2 0 1 3 5 6 3 4 3 4 14 15 12 12 6 4 7 4 2 4 5 5 9 12 7 6 8 8 10 12 11 10 8 6 4 4 6 4 4 3 4 8 6 6 7 -1 3 15 15 14 11 11 20 12 -1 2 12 26 21 5 6 5 4 9 6 8 12
7 8 9 10 10 9 9 11 12 12 7 5 6 5 7 9 4 1 4 6 8 9 7 6 9 5 -0 1 5 10 15 14 8 1 0 4 2 2 7 7 6 10 11 3 1 7 7 6 10 11 11 10 9 6 5 4 3 3 2 2 5 8 7 5 3 5 11 10 12 14 13 26 22 4 9 16 19 19 8 6 7 8 10 7 13 19
8 9 10 9 8 8 8 8 10 11 7 4 6 6 8 7 1 2 7 7 7 7 7 5 5 5 5 13 11 -1 3 5 -4 -2 3 2 3 7 9 8 6 8 11 7 1 3 8 9 9 11 12 10 8 7 6 4 3 1 -1 -0 5 11 9 7 8 7 8 5 8 13 11 27 31 7 9 20 16 16 10 5 7 5 6 9 10 9
9 10 11 9 8 7 8 9 7 6 6 7 5 4 8 6 -0 5 11 6 -2 -3 2 1 1 7 6 9 8 -2 8 12 1 5 13 7 6 9 10 9 6 5 8 9 4 2 6 10 11 12 12 11 8 7 7 6 6 5 4 6 7 10 11 12 9 6 9 5 8 17 10 24 39 17 11 20 13 13 9 5 7 3 4 7 4 6
8 9 8 8 7 7 7 8 8 6 6 6 1 2 7 7 6 9 10 6 1 2 4 -0 -0 2 -2 0 4 6 19 23 11 9 10 7 9 8 7 9 10 11 10 8 4 1 2 9 19 20 15 11 9 6 6 8 10 10 9 11 9 8 10 12 8 5 7 2 6 15 12 26 41 22 12 15 12 15 9 2 5 5 6 6 4 9
8 9 7 6 6 6 6 6 10 9 9 6 1 5 9 9 12 11 10 10 9 6 4 7 10 3 -3 3 2 3 14 18 19 18 5 2 8 1 -6 -2 1 3 6 7 7 6 7 12 19 25 22 17 16 14 12 11 12 12 10 9 8 7 9 11 8 5 6 5 5 7 11 23 22 7 10 14 11 14 9 2 2 3 7 8 7 8
8 8 8 9 7 6 7 6 7 7 7 5 3 9 9 9 14 10 7 11 8 2 -1 4 12 6 3 5 -5 -3 7 3 5 15 8 5 8 1 -2 1 -3 -5 -1 5 10 11 9 5 5 16 20 14 15 18 17 14 10 9 8 7 6 7 10 11 8 6 7 8 7 6 10 14 12 12 10 7 11 15 11 6 3 4 9 9 7 8
10 9 8 10 11 8 7 6 5 3 3 4 3 7 6 10 19 10 2 5 2 0 0 1 5 3 3 2 -6 2 12 -2 -9 2 10 12 10 6 8 7 3 5 6 5 8 7 4 3 5 11 12 7 6 10 15 18 14 10 11 11 8 10 13 10 8 8 9 11 7 6 9 8 18 29 13 4 15 15 8 6 4 8 13 11 8 8
9 10 8 6 9 8 6 5 3 1 2 4 4 6 8 9 10 8 6 5 2 2 1 -1 -1 1 1 1 4 7 7 3 -1 1 9 14 12 10 6 4 9 11 6 3 4 4 3 6 8 9 10 11 7 3 6 11 15 13 11 9 5 7 13 10 9 9 8 13 10 6 12 8 10 19 11 9 21 17 9 7 7 10 11 8 5 6
5 5 5 3 3 7 8 5 3 4 6 10 9 7 12 10 3 4 9 5 3 2 -2 -3 -2 1 1 -1 4 2 -1 8 6 -1 10 15 11 14 9 7 14 11 1 -0 2 2 0 2 3 0 5 12 9 5 3 4 11 13 12 11 5 6 16 15 11 9 6 10 12 10 14 8 3 9 7 6 18 23 16 6 8 13 9 5 7 8
6 3 2 1 1 6 11 10 9 11 17 25 26 15 12 14 10 9 8 7 11 6 -0 7 8 6 9 8 10 9 5 7 -3 -8 11 13 4 9 8 6 11 9 3 3 5 4 -1 -1 0 -4 2 12 6 -0 -0 0 4 6 7 10 7 7 14 12 6 5 5 7 9 11 13 7 4 11 9 3 7 17 20 14 10 11 6 6 11 13
5 5 8 7 2 3 7 10 11 12 16 23 25 20 13 10 10 10 9 9 12 9 10 23 22 11 11 13 16 19 17 17 10 9 16 9 2 6 3 -0 1 2 4 4 5 5 -1 -1 1 -0 4 5 -5 -8 -3 1 9 13 11 9 10 10 11 6 -1 1 8 11 9 10 12 7 5 11 11 7 4 6 16 21 13 8 12 14 16 15
4 6 9 7 5 6 4 4 6 7 10 12 11 11 10 7 4 5 9 11 12 15 18 17 12 5 4 6 9 13 18 22 23 21 13 1 2 6 3 -1 -3 -3 -0 -0 -0 1 -2 0 4 4 4 1 -0 2 1 1 8 19 21 14 9 8 9 10 5 3 9 13 10 11 12 8 6 13 16 9 5 6 10 15 13 13 19 18 13 13
14 12 8 4 3 5 5 8 15 16 16 17 15 10 6 4 4 5 9 11 10 9 8 5 5 6 5 6 7 10 13 14 13 13 9 4 7 11 9 6 2 0 -0 -2 -3 -3 -2 1 3 1 1 3 5 1 -2 3 9 15 21 19 12 8 8 12 10 4 4 8 10 11 12 10 3 8 19 13 6 6 5 7 12 14 16 13 9 11
18 12 6 5 2 4 9 12 18 21 17 16 16 14 12 8 8 9 8 11 10 6 5 8 11 9 6 7 9 10 10 8 7 7 8 11 11 12 14 14 12 9 8 9 9 8 7 6 4 1 2 6 7 5 7 12 13 14 20 20 13 6 4 6 9 7 4 5 8 10 14 15 1 -5 13 22 14 7 3 6 12 10 9 11 10 10
14 9 6 9 7 10 16 10 3 5 10 15 14 10 11 8 8 10 6 7 11 10 9 7 5 6 7 9 10 10 9 7 7 6 8 12 12 10 12 15 16 13 12 15 15 17 18 15 12 9 8 10 12 14 15 13 11 10 17 20 14 10 13 15 14 10 7 5 5 6 13 20 8 -13 -4 19 24 14 4 7 16 13 9 11 8 7
11 12 10 10 5 4 8 4 1 6 13 19 16 11 11 9 8 10 9 9 10 11 11 8 5 5 4 6 7 8 9 7 8 9 7 7 9 11 11 10 12 11 11 13 13 13 14 14 16 14 12 14 12 12 11 13 16 13 15 22 20 18 18 15 14 13 14 19 19 16 13 16 13 -5 -10 10 25 21 7 5 14 16 11 6 3 8
10 11 11 12 6 2 9 9 6 13 19 16 10 11 14 10 8 10 10 11 12 8 8 7 8 6 3 4 7 9 10 8 8 8 5 5 8 12 13 12 12 11 11 12 11 12 11 9 10 12 15 15 10 11 13 13 13 10 12 21 28 30 23 13 13 13 15 16 16 22 22 15 10 1 -7 -1 14 23 17 9 9 8 8 6 4 9
12 11 9 11 5 5 21 19 5 10 17 13 9 9 10 8 8 11 10 12 11 5 2 3 3 3 3 3 3 6 7 5 5 5 5 8 9 9 9 8 8 7 6 5 6 11 12 11 14 18 26 31 24 18 13 10 10 9 10 19 31 36 33 30 22 16 21 10 -3 11 22 15 11 5 -2 -2 5 18 20 13 10 4 2 7 11 10
13 11 6 7 4 5 18 13 -0 9 15 9 8 7 7 9 7 5 7 13 16 9 1 1 1 3 6 6 8 13 13 10 10 10 10 9 8 9 9 8 12 12 8 8 15 18 16 18 21 16 19 32 38 30 16 11 16 17 15 22 30 27 27 35 25 13 20 11 -1 12 12 9 16 7 -0 0 -4 7 20 18 19 16 3 4 14 12
13 11 6 12 10 3 13 12 1 11 16 7 3 2 5 12 10 4 2 6 13 10 3 2 4 6 7 6 8 11 12 13 14 12 11 10 8 10 13 15 18 20 17 17 25 28 24 21 12 2 4 14 21 25 22 15 11 10 9 13 23 23 22 30 25 18 18 3 1 17 6 1 16 8 2 1 -15 -2 26 21 13 14 7 7 16 13
10 8 1 12 17 3 5 11 4 9 16 10 3 0 3 6 6 6 4 1 4 6 6 5 6 8 9 10 11 10 7 7 8 9 10 10 6 3 12 19 14 12 17 20 23 25 24 18 3 -6 3 11 12 15 15 11 8 9 11 10 14 18 19 26 27 21 19 2 -2 18 11 -0 11 11 10 8 -9 2 26 17 3 4 10 18 18 9
6 6 -4 3 18 10 -0 1 6 14 17 11 3 -0 2 2 2 7 6 1 -1 1 4 5 5 6 4 3 5 7 6 2 4 9 10 11 8 4 15 28 21 13 14 16 15 12 10 12 8 1 -1 2 6 5 -1 0 5 8 11 9 9 12 13 24 28 17 17 9 -1 15 20 7 9 14 13 13 6 7 15 14 8 5 13 23 15 7
7 6 -1 -1 9 14 3 -5 2 12 11 10 6 3 4 1 1 4 2 1 4 4 2 2 2 -0 1 8 10 7 5 6 10 13 13 16 12 2 6 17 15 8 6 7 8 8 7 7 8 9 7 5 7 5 1 2 3 1 -2 -4 5 13 5 7 16 14 19 18 5 10 19 12 10 12 11 14 12 6 10 17 13 7 13 14 -3 -5
10 7 5 0 0 11 12 1 1 5 5 9 9 7 9 7 4 4 0 0 5 7 6 6 4 0 4 17 19 9 5 10 11 8 11 22 22 11 8 6 3 3 5 7 6 6 8 7 6 6 6 7 8 8 10 10 7 9 8 5 11 15 6 1 3 0 6 12 8 8 10 7 7 6 7 14 10 3 10 18 15 9 12 9 -10 -15
8 7 9 6 -1 4 9 4 2 4 6 13 11 6 6 6 7 7 4 4 4 2 2 2 4 3 1 -0 -3 -3 3 7 5 0 4 16 18 14 15 12 8 9 10 10 9 6 6 7 8 8 5 5 6 7 9 8 7 9 10 13 14 12 10 6 -2 -4 3 8 8 11 10 5 6 7 11 16 13 5 7 13 16 13 9 13 10 -3
5 5 7 9 7 6 5 1 1 3 4 9 14 13 7 2 4 6 5 6 6 6 4 1 5 7 2 -4 -7 -2 4 1 -2 -1 1 5 1 -2 6 13 15 14 11 9 8 8 9 8 8 10 9 8 6 6 6 4 5 5 4 9 12 10 10 3 -5 2 12 8 5 11 12 6 6 13 16 17 14 8 6 9 16 20 13 10 13 6
5 5 3 5 8 11 11 5 1 2 -0 -1 5 12 10 2 -0 3 6 6 7 12 11 7 9 10 6 5 5 7 6 0 3 12 14 12 4 -1 3 8 9 9 10 9 7 7 9 10 10 11 11 12 10 8 8 5 4 4 3 5 6 6 7 2 -1 5 10 8 6 9 10 5 6 13 12 13 16 12 8 9 14 25 21 4 1 5
3 3 2 3 3 6 13 14 10 7 4 1 2 8 12 8 5 7 8 6 3 5 7 6 8 9 8 8 10 12 12 11 18 24 20 14 9 10 11 7 4 6 6 8 9 10 10 9 9 10 10 12 13 12 12 10 8 8 8 8 7 6 6 4 5 7 7 10 10 10 12 9 8 12 11 14 17 12 13 16 14 19 19 5 1 7
4 1 1 4 2 -2 3 12 18 17 14 8 1 0 5 7 8 11 11 7 1 -1 2 6 7 7 5 3 6 8 5 4 1 -6 -5 5 10 11 11 8 8 9 8 8 9 9 10 9 8 8 8 9 12 13 14 13 12 11 10 11 10 9 8 7 9 9 8 10 9 9 12 11 10 13 16 18 13 7 14 21 14 8 6 5 8 12
9 6 -1 -1 2 1 -2 1 10 18 20 15 6 2 3 6 9 13 11 8 6 1 1 6 8 7 4 2 5 4 -1 2 3 -5 -4 7 10 6 4 5 8 9 8 9 7 5 5 5 5 5 6 7 8 10 12 13 13 12 11 12 13 11 11 11 11 11 10 8 10 11 11 12 12 10 11 14 12 9 15 20 17 7 -3 2 12 13
20 19 9 3 2 -2 -6 -5 10 28 29 18 9 5 6 9 13 16 15 14 15 9 2 3 5 6 5 3 4 6 5 12 22 23 18 15 9 5 5 7 7 6 5 5 4 5 4 3 4 4 4 5 6 6 8 11 12 12 10 11 12 11 12 12 14 17 14 9 9 12 13 14 14 12 12 14 12 11 15 22 26 16 -3 -4 9 9
19 21 22 24 23 17 8 -3 3 27 35 23 14 10 8 7 6 7 8 10 14 14 10 10 9 7 8 9 8 10 7 5 15 22 21 17 12 5 5 8 6 4 4 3 2 4 4 3 4 4 4 4 3 4 5 7 10 11 10 10 9 10 12 12 15 19 19 14 12 14 17 15 15 16 15 16 15 10 13 21 27 22 1 -13 -3 8
16 18 19 22 25 32 33 11 -8 3 20 21 17 15 14 15 14 11 8 5 6 9 13 21 22 15 10 9 10 12 7 -1 2 9 9 9 10 6 5 8 7 4 4 3 3 4 4 5 6 5 5 5 3 4 4 4 7 9 9 8 6 7 10 11 13 15 17 18 17 17 18 16 16 16 9 14 21 17 20 24 18 20 10 -16 -13 7
11 15 16 16 13 16 25 20 2 -2 6 10 11 9 7 11 16 17 15 11 8 6 8 17 27 27 20 12 9 11 9 4 4 8 10 11 11 11 10 8 7 6 5 4 3 4 4 6 7 6 6 6 6 6 5 4 5 6 8 9 6 6 8 8 11 12 12 15 19 22 21 16 16 13 10 21 24 16 27 29 8 12 14 -14 -14 8
7 6 8 12 13 9 12 17 14 10 9 10 12 11 7 7 9 12 13 13 10 5 1 0 5 13 17 15 11 8 6 7 11 14 16 15 14 14 14 13 10 8 7 7 6 5 5 6 7 6 7 7 6 7 7 6 6 5 7 8 7 6 6 6 9 11 10 14 21 25 20 14 13 9 14 30 28 17 26 21 4 16 16 -15 -11 10
10 6 2 2 4 5 7 8 9 10 10 9 10 10 11 10 9 8 9 11 11 9 4 -1 -5 -2 4 10 14 14 10 11 14 13 7 4 7 10 10 8 6 5 7 9 8 7 7 6 7 6 6 5 5 6 6 6 7 7 7 8 9 8 7 6 7 9 11 15 21 22 17 15 14 7 10 24 27 22 20 8 7 26 12 -19 -9 11
14 12 9 7 6 5 5 3 3 5 8 9 9 9 10 11 12 11 9 10 12 12 11 10 9 8 9 9 11 14 11 9 10 11 8 6 6 5 3 3 5 6 8 9 8 8 6 6 7 7 6 6 5 5 5 5 7 8 7 7 9 9 8 7 6 7 9 14 18 20 22 21 9 -0 5 14 17 19 12 2 15 27 3 -17 -1 12
14 13 10 10 9 8 7 7 7 7 8 8 8 8 7 7 10 13 13 13 13 12 12 12 12 12 12 11 10 10 8 6 5 6 9 14 15 11 6 6 7 9 10 10 9 8 6 5 6 6 6 7 5 4 5 5 6 7 7 7 9 10 10 7 6 6 7 14 17 14 24 33 18 6 11 11 11 17 11 10 30 26 -6 -14 2 8
7 8 8 8 8 9 10 9 8 9 10 10 10 10 9 8 8 9 10 11 11 12 13 12 11 9 8 6 7 8 7 8 8 6 6 10 15 16 13 9 7 6 7 8 9 9 8 6 5 5 6 6 6 6 5 4 4 6 6 6 7 10 10 7 7 6 5 12 14 9 23 38 27 15 16 9 8 14 8 12 31 15 -17 -15 3 11
9 9 10 11 10 10 11 11 11 11 10 10 12 14 14 14 15 15 14 15 16 16 15 14 14 14 13 13 14 15 14 14 14 13 11 9 10 12 13 12 10 8 7 6 6 7 8 7 7 6 6 5 6 6 5 5 5 6 7 7 7 9 11 8 8 9 7 9 11 11 20 23 12 13 20 11 8 12 8 11 19 2 -15 -4 12 21
15 16 16 15 13 12 12 13 12 12 11 9 9 11 11 11 12 14 16 19 22 22 19 17 17 17 18 18 17 17 17 18 17 17 17 15 12 10 10 10 11 12 12 10 6 4 5 6 7 7 7 7 6 5 5 6 7 6 7 7 6 7 9 9 8 8 8 9 9 10 14 11 7 15 20 12 12 18 16 14 10 -1 -1 8 12 18
16 17 17 16 14 13 13 13 13 15 18 17 12 11 11 12 13 13 12 13 16 18 19 18 16 16 16 15 15 14 14 14 15 16 17 17 17 16 16 16 16 18 19 18 14 11 9 9 9 8 8 9 8 8 9 8 9 10 9 8 7 5 6 9 9 7 6 8 10 10 12 11 11 15 19 21 26 23 14 12 8 1 8 16 13 11
11 12 14 14 12 10 8 8 8 10 14 17 17 15 13 11 8 7 7 7 8 11 13 13 11 11 10 10 11 11 11 10 10 11 11 12 14 15 16 17 17 17 20 20 18 16 15 13 12 10 9 9 9 10 10 7 7 9 9 10 9 7 5 6 8 7 4 5 7 9 12 13 10 7 12 21 25 21 22 30 28 14 6 12 17 13
9 9 10 10 10 10 9 9 10 9 9 12 14 14 15 11 6 4 6 8 8 8 8 9 9 9 7 7 7 8 8 8 9 9 9 9 8 8 9 11 11 11 12 13 14 14 16 16 16 14 12 9 6 7 7 6 7 8 9 10 9 8 8 7 7 7 7 7 8 8 8 12 13 10 8 8 11 16 23 32 36 31 20 10 9 7
13 11 9 9 10 12 13 13 12 12 14 17 16 14 17 17 13 12 15 15 13 10 8 8 10 11 10 10 10 10 10 9 9 8 8 8 7 6 6 8 9 10 10 11 11 12 13 14 15 16 15 11 9 9 9 9 10 10 11 12 11 9 8 6 6 8 9 10 12 12 9 9 11 13 11 9 9 6 4 7 14 25 33 31 21 16
15 11 9 9 10 12 14 16 17 18 18 19 16 13 13 14 16 19 23 23 20 16 14 13 13 14 15 15 14 14 15 14 13 13 12 11 10 9 8 7 7 7 7 8 9 9 10 10 8 9 9 9 9 9 9 10 12 12 12 12 13 12 10 8 9 11 12 12 13 14 14 11 10 10 11 12 10 2 -1 5 7 8 19 29 30 30
11 9 10 13 18 22 20 20 28 30 23 16 14 14 14 14 15 17 17 16 15 13 13 13 12 11 12 11 11 11 10 10 11 11 11 12 12 12 12 12 11 9 8 7 6 6 7 7 7 7 8 9 9 9 9 10 11 11 11 12 15 16 13 11 10 10 10 12 13 14 16 14 12 13 15 17 15 7 4 10 12 9 8 9 14 27
16 16 16 20 28 28 19 17 27 31 26 19 16 17 16 14 11 10 9 8 9 8 8 9 10 11 13 13 13 13 12 12 11 10 8 7 6 6 6 7 8 9 10 9 8 7 6 6 6 7 7 8 9 11 11 11 10 11 12 13 15 18 16 14 12 10 9 11 12 13 14 12 10 10 13 16 16 10 4 4 7 10 12 12 14 20
22 24 22 21 25 25 20 21 23 19 17 18 16 12 12 11 9 9 9 9 9 9 9 9 9 10 11 11 13 14 15 17 18 18 17 15 12 10 7 5 3 3 4 6 7 8 8 8 8 7 7 7 7 8 10 12 12 11 12 11 10 13 17 18 16 13 12 13 12 9 7 6 4 3 4 8 10 6 4 4 4 7 11 11 6 -2
20 21 19 15 18 22 20 21 19 10 8 14 14 10 11 11 9 9 9 8 8 7 6 5 4 5 5 5 6 8 10 13 16 19 20 21 21 21 19 16 13 9 6 5 4 3 5 7 8 8 8 8 8 8 9 11 10 9 10 11 9 10 13 16 16 14 11 9 7 6 5 4 1 -1 1 5 7 6 5 5 6 9 11 8 0 -8
Height
5742 5744 5747 5750 5755 5758 5760 5763 5765 5766 5766 5767 5768 5770 5772 5774 5775 5779 5781 5781 5783 5784 5784 5785 5785 5786 5788 5790 5789 5788 5788 5789 5790 5790 5790 5790 5791 5791 5791 5792 5792 5793 5794 5793 5793 5792 5793 5793 5794 5794 5794 5794 5794 5794 5793 5793 5793 5793 5793 5793 5793 5793 5792 5790 5789 5792 5793 5792 5793 5792 5792 5792 5791 5791 5791 5791 5791 5792 5794 5795 5797 5799 5801 5802 5803 5805
5738 5741 5746 5750 5753 5755 5756 5759 5761 5763 5763 5764 5766 5768 5770 5772 5774 5778 5779 5778 5779 5780 5780 5781 5781 5782 5784 5787 5788 5787 5786 5786 5787 5787 5787 5788 5789 5789 5790 5790 5790 5790 5790 5791 5790 5790 5790 5791 5791 5792 5792 5792 5791 5791 5790 5790 5790 5790 5790 5791 5791 5790 5789 5786 5786 5788 5789 5789 5790 5790 5789 5788 5788 5788 5788 5788 5789 5790 5791 5793 5796 5798 5800 5801 5802 5803
5737 5741 5745 5747 5749 5750 5752 5755 5758 5759 5760 5762 5763 5765 5768 5771 5773 5776 5776 5775 5776 5777 5777 5778 5778 5780 5781 5782 5784 5786 5786 5785 5784 5783 5784 5785 5785 5786 5786 5786 5786 5786 5786 5787 5788 5788 5788 5788 5788 5789 5789 5788 5788 5788 5787 5787 5788 5788 5788 5788 5788 5787 5786 5785 5784 5785 5786 5785 5786 5786 5786 5785 5785 5786 5786 5787 5787 5788 5789 5791 5794 5797 5799 5800 5801 5802
5737 5741 5743 5743 5745 5746 5749 5752 5755 5756 5757 5759 5761 5762 5766 5769 5771 5773 5772 5772 5772 5773 5774 5775 5775 5777 5778 5778 5780 5783 5784 5783 5781 5781 5782 5782 5782 5783 5783 5782 5783 5783 5783 5784 5785 5786 5786 5786 5786 5785 5785 5785 5785 5785 5785 5785 5785 5785 5785 5785 5784 5784 5784 5783 5782 5783 5783 5782 5783 5783 5783 5782 5782 5783 5784 5785 5786 5787 5788 5790 5792 5795 5797 5798 5799 5800
5734 5736 5737 5739 5741 5743 5746 5749 5752 5753 5754 5757 5758 5760 5763 5767 5769 5769 5770 5770 5770 5770 5771 5772 5773 5774 5775 5776 5777 5779 5781 5781 5779 5779 5779 5780 5780 5780 5780 5780 5780 5781 5781 5782 5783 5783 5783 5784 5784 5783 5783 5783 5782 5782 5782 5783 5783 5782 5782 5782 5781 5782 5782 5781 5780 5780 5780 5780 5781 5781 5781 5780 5780 5781 5781 5783 5785 5786 5787 5788 5790 5792 5794 5795 5797 5798
5730 5732 5734 5735 5738 5741 5743 5746 5749 5751 5752 5754 5756 5758 5762 5765 5766 5766 5767 5767 5768 5769 5770 5771 5772 5772 5773 5774 5775 5776 5778 5778 5778 5777 5778 5778 5777 5777 5778 5778 5778 5778 5779 5779 5780 5781 5781 5781 5781 5780 5780 5781 5780 5780 5780 5781 5780 5779 5779 5779 5778 5779 5779 5779 5778 5778 5777 5778 5779 5779 5779 5779 5779 5779 5780 5781 5783 5784 5785 5786 5788 5790 5792 5793 5795 5796
5726 5729 5732 5734 5736 5738 5740 5743 5746 5748 5751 5752 5754 5757 5761 5763 5763 5764 5764 5765 5766 5767 5768 5769 5770 5770 5771 5772 5772 5774 5775 5775 5775 5776 5777 5777 5776 5775 5775 5776 5776 5776 5777 5777 5778 5779 5779 5779 5778 5777 5777 5778 5778 5778 5778 5778 5777 5776 5776 5776 5776 5776 5777 5777 5776 5775 5775 5776 5777 5777 5777 5778 5778 5778 5779 5780 5781 5782 5784 5785 5786 5788 5790 5791 5792 5794
5724 5727 5729 5732 5733 5735 5738 5741 5743 5746 5748 5750 5752 5756 5759 5760 5761 5761 5761 5762 5763 5764 5765 5766 5766 5768 5770 5770 5769 5771 5771 5771 5773 5774 5775 5775 5774 5773 5773 5773 5773 5774 5775 5775 5776 5776 5777 5776 5776 5775 5775 5775 5775 5775 5775 5775 5775 5774 5774 5774 5774 5775 5775 5774 5773 5772 5772 5774 5775 5775 5776 5776 5776 5777 5778 5779 5780 5781 5782 5783 5785 5786 5788 5789 5790 5792
5723 5725 5728 5730 5732 5733 5736 5739 5742 5744 5746 5749 5752 5753 5755 5757 5757 5758 5759 5759 5760 5761 5763 5764 5764 5766 5768 5767 5766 5767 5768 5768 5769 5771 5772 5772 5771 5771 5770 5770 5771 5771 5772 5772 5773 5773 5773 5773 5773 5773 5773 5772 5772 5772 5773 5773 5773 5772 5772 5773 5773 5773 5774 5772 5770 5770 5771 5772 5774 5774 5775 5775 5774 5775 5776 5777 5778 5780 5781 5782 5783 5783 5785 5787 5788 5790
5720 5723 5725 5727 5728 5731 5734 5737 5739 5741 5744 5748 5749 5749 5750 5752 5753 5754 5756 5757 5758 5759 5760 5762 5762 5764 5764 5763 5763 5763 5765 5766 5767 5767 5768 5768 5768 5768 5768 5769 5769 5769 5769 5769 5770 5770 5769 5770 5770 5771 5771 5770 5770 5769 5770 5771 5771 5771 5771 5771 5772 5772 5772 5771 5770 5770 5771 5772 5772 5772 5773 5774 5773 5773 5774 5775 5776 5778 5780 5781 5781 5781 5783 5784 5786 5788
5717 5719 5721 5722 5724 5727 5731 5734 5735 5738 5741 5743 5743 5744 5745 5748 5749 5751 5753 5754 5755 5755 5757 5761 5762 5762 5761 5759 5759 5760 5761 5763 5764 5765 5765 5765 5765 5765 5766 5767 5766 5767 5767 5767 5767 5767 5767 5767 5768 5768 5768 5767 5766 5766 5766 5768 5768 5768 5768 5768 5769 5769 5769 5768 5768 5769 5770 5771 5771 5771 5772 5772 5772 5772 5772 5773 5774 5776 5778 5779 5779 5780 5781 5782 5783 5785
5714 5716 5718 5720 5721 5724 5727 5730 5732 5735 5738 5739 5739 5740 5742 5744 5746 5748 5749 5751 5752 5754 5757 5761 5761 5760 5758 5756 5756 5757 5758 5760 5762 5763 5763 5763 5762 5763 5763 5764 5764 5764 5764 5765 5765 5765 5765 5764 5764 5765 5764 5763 5763 5763 5764 5765 5765 5765 5765 5765 5766 5766 5766 5765 5765 5766 5767 5768 5769 5770 5771 5771 5771 5770 5770 5771 5771 5773 5775 5777 5777 5778 5779 5780 5781 5782
5713 5714 5716 5717 5719 5721 5724 5727 5729 5731 5734 5736 5737 5738 5739 5741 5742 5744 5746 5749 5750 5753 5756 5757 5757 5756 5754 5752 5753 5754 5755 5757 5759 5760 5760 5760 5760 5761 5762 5762 5761 5761 5762 5762 5762 5762 5762 5761 5761 5762 5761 5760 5760 5760 5760 5762 5763 5763 5763 5763 5763 5763 5763 5762 5762 5762 5764 5764 5765 5767 5768 5769 5770 5770 5769 5769 5769 5770 5772 5774 5775 5776 5777 5778 5779 5780
5711 5712 5712 5714 5716 5719 5722 5725 5727 5729 5731 5733 5735 5736 5737 5738 5739 5741 5744 5747 5749 5752 5753 5753 5753 5752 5751 5750 5751 5751 5752 5755 5756 5757 5757 5758 5758 5759 5760 5760 5759 5759 5759 5759 5760 5760 5759 5759 5759 5759 5758 5757 5757 5756 5755 5758 5760 5760 5759 5758 5758 5759 5759 5759 5759 5759 5760 5760 5760 5762 5765 5767 5770 5770 5768 5767 5767 5768 5769 5771 5773 5774 5775 5776 5777 5778
5709 5710 5711 5713 5715 5717 5722 5724 5726 5727 5728 5730 5733 5734 5735 5736 5738 5740 5743 5745 5747 5748 5749 5749 5750 5749 5748 5748 5748 5748 5750 5752 5753 5754 5755 5755 5755 5756 5757 5757 5757 5757 5757 5757 5758 5757 5757 5756 5756 5756 5756 5755 5755 5754 5754 5755 5757 5756 5754 5754 5754 5753 5753 5754 5754 5755 5756 5756 5756 5758 5761 5764 5767 5767 5765 5765 5765 5766 5767 5768 5770 5772 5773 5774 5775 5776
5706 5708 5711 5714 5715 5717 5721 5723 5723 5724 5725 5727 5729 5731 5732 5734 5736 5739 5741 5742 5743 5744 5745 5746 5746 5746 5747 5747 5747 5747 5748 5749 5750 5751 5752 5752 5752 5753 5754 5754 5755 5755 5755 5755 5755 5754 5754 5754 5753 5752 5752 5751 5751 5751 5751 5752 5753 5752 5751 5751 5751 5748 5748 5748 5748 5751 5753 5753 5753 5755 5757 5760 5763 5764 5763 5763 5763 5764 5764 5765 5767 5769 5770 5772 5773 5774
5704 5707 5710 5712 5713 5716 5719 5720 5721 5722 5723 5724 5726 5729 5731 5733 5735 5736 5737 5738 5739 5740 5742 5743 5743 5744 5745 5745 5745 5745 5746 5747 5747 5748 5749 5749 5749 5750 5751 5751 5751 5752 5752 5752 5752 5751 5751 5750 5750 5749 5749 5748 5747 5747 5747 5748 5749 5749 5749 5748 5747 5746 5746 5746 5746 5749 5751 5753 5753 5753 5754 5756 5759 5760 5760 5761 5761 5762 5763 5763 5764 5766 5768 5770 5771 5772
5703 5706 5708 5710 5711 5714 5716 5718 5719 5719 5720 5722 5725 5728 5729 5730 5731 5732 5733 5734 5735 5737 5739 5739 5740 5741 5742 5742 5743 5743 5744 5745 5745 5746 5746 5747 5747 5747 5747 5747 5748 5748 5748 5748 5748 5748 5747 5747 5746 5746 5745 5745 5744 5744 5744 5745 5745 5746 5746 5745 5743 5742 5743 5745 5746 5748 5749 5753 5754 5754 5753 5754 5756 5758 5759 5759 5760 5761 5762 5761 5762 5763 5765 5767 5769 5770
5701 5703 5706 5708 5710 5712 5713 5714 5716 5717 5718 5720 5723 5726 5727 5726 5727 5729 5730 5731 5732 5734 5736 5736 5737 5738 5739 5740 5741 5741 5742 5743 5743 5744 5744 5744 5744 5744 5745 5744 5744 5745 5745 5745 5745 5745 5744 5743 5743 5743 5742 5741 5741 5740 5741 5741 5742 5743 5743 5742 5741 5739 5739 5741 5743 5744 5747 5751 5752 5752 5753 5753 5754 5756 5757 5757 5758 5760 5760 5760 5759 5760 5762 5763 5765 5766
5699 5701 5703 5706 5708 5710 5710 5711 5713 5715 5716 5717 5720 5722 5723 5724 5725 5726 5727 5729 5731 5732 5733 5733 5734 5735 5737 5738 5738 5739 5739 5740 5741 5742 5742 5742 5742 5743 5743 5742 5742 5741 5741 5741 5742 5741 5741 5741 5741 5741 5740 5738 5738 5738 5738 5738 5739 5741 5741 5740 5739 5738 5737 5738 5739 5742 5745 5746 5747 5747 5749 5750 5752 5753 5754 5755 5756 5757 5757 5756 5756 5756 5758 5759 5761 5763
5696 5699 5702 5704 5706 5706 5707 5709 5712 5714 5714 5715 5716 5717 5719 5721 5722 5723 5725 5726 5728 5729 5730 5731 5731 5732 5734 5735 5736 5736 5737 5739 5740 5740 5740 5740 5741 5741 5741 5740 5738 5738 5737 5737 5738 5738 5738 5738 5739 5739 5738 5738 5737 5737 5737 5737 5737 5738 5739 5739 5739 5737 5736 5736 5738 5741 5742 5742 5743 5744 5745 5747 5749 5751 5752 5753 5754 5754 5753 5753 5753 5754 5754 5756 5757 5759
5693 5696 5700 5702 5703 5703 5704 5706 5709 5711 5712 5712 5713 5714 5716 5718 5720 5721 5722 5723 5725 5726 5727 5728 5729 5730 5731 5732 5733 5734 5735 5737 5737 5737 5738 5738 5738 5738 5737 5736 5736 5735 5735 5735 5735 5735 5735 5736 5736 5737 5737 5737 5737 5736 5736 5736 5736 5737 5737 5738 5738 5737 5736 5736 5737 5739 5739 5741 5743 5743 5743 5745 5747 5749 5750 5751 5751 5750 5752 5753 5752 5752 5753 5753 5754 5756
5691 5694 5698 5700 5700 5700 5701 5703 5705 5707 5708 5709 5711 5712 5714 5716 5717 5719 5721 5721 5722 5724 5725 5726 5727 5727 5728 5729 5731 5732 5733 5734 5734 5735 5735 5735 5736 5735 5734 5733 5734 5734 5734 5733 5734 5734 5734 5734 5734 5735 5735 5735 5735 5735 5735 5735 5735 5735 5736 5737 5737 5737 5736 5735 5736 5737 5738 5741 5742 5742 5742 5743 5745 5747 5749 5749 5748 5748 5750 5751 5750 5751 5751 5751 5752 5754
5689 5692 5695 5697 5696 5697 5700 5702 5704 5705 5706 5707 5708 5710 5712 5714 5715 5716 5718 5719 5720 5721 5722 5724 5725 5725 5725 5727 5729 5730 5731 5731 5732 5733 5733 5733 5733 5733 5732 5732 5732 5732 5732 5732 5732 5733 5733 5733 5733 5733 5733 5733 5734 5734 5734 5734 5734 5734 5734 5735 5736 5737 5736 5734 5734 5734 5736 5738 5740 5740 5740 5741 5743 5744 5745 5745 5745 5746 5748 5748 5748 5749 5749 5749 5750 5752
5686 5689 5692 5694 5694 5695 5697 5699 5701 5703 5705 5705 5706 5708 5710 5711 5713 5714 5715 5717 5718 5719 5720 5721 5722 5723 5724 5726 5727 5728 5729 5729 5730 5731 5731 5730 5730 5730 5730 5730 5730 5730 5730 5730 5730 5731 5731 5732 5732 5731 5731 5731 5732 5733 5733 5732 5732 5733 5733 5733 5734 5734 5735 5734 5732 5733 5735 5737 5738 5738 5739 5739 5740 5741 5741 5741 5742 5743 5745 5746 5747 5747 5747 5746 5747 5749
5685 5687 5689 5691 5692 5693 5695 5696 5699 5701 5703 5704 5705 5706 5708 5710 5711 5712 5713 5715 5716 5717 5717 5719 5720 5721 5722 5724 5725 5726 5726 5727 5728 5729 5729 5729 5728 5728 5728 5728 5728 5728 5728 5728 5729 5729 5729 5729 5730 5730 5729 5728 5729 5730 5730 5730 5730 5730 5731 5731 5731 5731 5732 5732 5731 5732 5734 5736 5736 5736 5736 5737 5737 5738 5739 5738 5739 5740 5741 5743 5744 5744 5744 5743 5744 5746
5682 5684 5686 5688 5690 5692 5693 5694 5696 5698 5700 5702 5703 5704 5706 5708 5709 5710 5711 5712 5714 5714 5715 5716 5717 5719 5720 5721 5722 5723 5724 5724 5725 5726 5727 5727 5726 5727 5727 5727 5727 5727 5727 5727 5727 5727 5727 5727 5727 5727 5727 5726 5726 5726 5727 5727 5728 5728 5728 5728 5728 5728 5728 5728 5728 5730 5733 5734 5734 5733 5732 5733 5734 5735 5736 5736 5737 5737 5737 5739 5740 5740 5740 5740 5741 5743
5680 5682 5683 5685 5687 5690 5692 5693 5693 5695 5698 5700 5701 5702 5704 5705 5707 5707 5708 5710 5711 5712 5713 5714 5715 5717 5718 5719 5720 5721 5721 5721 5722 5723 5724 5724 5724 5724 5724 5725 5725 5725 5725 5725 5725 5725 5725 5724 5724 5724 5724 5724 5724 5723 5724 5724 5725 5725 5725 5726 5726 5725 5725 5724 5725 5727 5729 5730 5730 5729 5728 5729 5730 5731 5732 5732 5733 5734 5734 5735 5736 5737 5737 5737 5737 5740
5678 5679 5680 5682 5685 5687 5690 5691 5692 5693 5695 5697 5699 5700 5702 5703 5704 5705 5706 5707 5708 5709 5710 5712 5713 5714 5715 5716 5717 5717 5718 5719 5719 5720 5721 5721 5721 5721 5722 5722 5722 5723 5723 5723 5723 5723 5723 5722 5722 5722 5722 5722 5721 5721 5722 5722 5722 5722 5723 5723 5723 5723 5723 5722 5722 5723 5725 5726 5727 5726 5726 5726 5727 5727 5728 5728 5730 5731 5732 5732 5733 5734 5734 5734 5735 5738
5676 5676 5677 5680 5682 5685 5687 5688 5690 5691 5692 5694 5695 5697 5698 5700 5701 5702 5703 5704 5705 5706 5708 5709 5710 5711 5712 5713 5714 5715 5716 5716 5717 5717 5718 5719 5719 5719 5719 5719 5719 5719 5720 5720 5721 5721 5721 5720 5720 5719 5719 5719 5719 5719 5719 5719 5719 5719 5720 5720 5720 5720 5720 5720 5720 5720 5720 5721 5722 5723 5723 5723 5724 5725 5725 5725 5726 5727 5728 5729 5730 5731 5732 5732 5734 5735
5672 5673 5675 5677 5680 5681 5683 5685 5686 5687 5689 5690 5692 5693 5695 5696 5698 5699 5700 5701 5702 5703 5705 5706 5707 5708 5709 5710 5711 5712 5713 5713 5714 5714 5715 5716 5716 5716 5717 5717 5716 5716 5717 5717 5718 5718 5718 5718 5718 5717 5717 5717 5717 5717 5717 5716 5716 5716 5717 5717 5717 5716 5716 5717 5717 5717 5717 5716 5717 5718 5719 5719 5720 5721 5721 5721 5722 5723 5724 5725 5727 5728 5729 5730 5731 5733
5670 5671 5673 5675 5677 5678 5680 5682 5683 5683 5685 5686 5688 5690 5691 5693 5695 5696 5697 5698 5699 5700 5702 5703 5704 5704 5705 5707 5708 5709 5710 5710 5710 5710 5711 5711 5712 5713 5714 5714 5714 5713 5714 5714 5714 5715 5715 5716 5716 5715 5715 5715 5715 5715 5714 5714 5714 5714 5714 5713 5713 5713 5713 5713 5714 5714 5714 5713 5713 5713 5714 5715 5716 5716 5717 5717 5717 5718 5720 5721 5723 5725 5726 5727 5728 5730
5667 5668 5670 5672 5674 5674 5676 5678 5679 5680 5681 5683 5685 5687 5689 5690 5691 5693 5694 5695 5696 5697 5698 5699 5700 5701 5702 5703 5705 5706 5707 5707 5707 5707 5707 5708 5709 5709 5710 5710 5710 5710 5710 5710 5710 5711 5712 5712 5713 5713 5713 5713 5712 5712 5712 5712 5711 5711 5711 5711 5711 5710 5710 5710 5710 5710 5711 5710 5709 5709 5709 5710 5711 5712 5712 5713 5713 5715 5716 5717 5719 5721 5722 5723 5725 5726
5664 5665 5667 5669 5670 5671 5672 5674 5675 5676 5678 5680 5683 5684 5686 5687 5688 5690 5691 5692 5693 5694 5695 5696 5697 5698 5699 5700 5702 5703 5704 5704 5704 5704 5704 5705 5705 5706 5706 5706 5706 5707 5707 5707 5707 5707 5708 5708 5709 5709 5710 5710 5710 5710 5710 5710 5709 5709 5708 5708 5708 5707 5707 5708 5708 5707 5707 5707 5706 5705 5705 5705 5707 5708 5709 5709 5709 5711 5712 5713 5715 5717 5719 5719 5721 5723
5662 5663 5664 5666 5667 5668 5670 5671 5672 5674 5676 5678 5680 5681 5682 5684 5685 5686 5687 5689 5690 5691 5692 5693 5694 5695 5696 5697 5698 5700 5700 5701 5701 5701 5701 5701 5702 5702 5702 5703 5703 5703 5704 5704 5703 5704 5704 5704 5705 5705 5706 5707 5707 5707 5707 5707 5707 5706 5706 5705 5705 5705 5705 5704 5704 5704 5704 5703 5703 5702 5702 5702 5703 5704 5706 5706 5706 5707 5708 5710 5712 5714 5715 5716 5718 5719
5659 5661 5662 5663 5665 5666 5668 5669 5670 5672 5674 5675 5677 5678 5679 5681 5682 5683 5684 5686 5687 5688 5690 5691 5692 5693 5694 5695 5695 5696 5697 5698 5698 5698 5698 5698 5699 5699 5699 5700 5700 5700 5700 5700 5700 5700 5701 5701 5701 5702 5702 5703 5703 5703 5704 5704 5704 5703 5703 5703 5702 5702 5702 5701 5701 5701 5700 5700 5699 5699 5699 5699 5700 5701 5703 5704 5704 5704 5705 5707 5709 5710 5711 5713 5714 5715
5656 5657 5659 5661 5663 5664 5666 5667 5668 5670 5671 5672 5674 5675 5677 5678 5679 5680 5681 5683 5684 5685 5686 5687 5689 5690 5691 5692 5693 5693 5694 5694 5694 5695 5695 5695 5696 5696 5696 5697 5697 5697 5697 5697 5697 5697 5697 5697 5697 5698 5698 5699 5699 5699 5700 5700 5701 5700 5700 5700 5700 5699 5699 5699 5698 5698 5698 5697 5697 5696 5696 5697 5697 5698 5699 5700 5701 5702 5703 5705 5706 5707 5708 5710 5710 5711
5654 5654 5656 5659 5661 5662 5664 5665 5667 5668 5669 5670 5671 5672 5674 5675 5676 5677 5678 5679 5681 5682 5683 5684 5685 5687 5688 5689 5690 5690 5690 5691 5691 5691 5692 5692 5692 5693 5693 5693 5693 5693 5693 5693 5693 5694 5694 5694 5694 5695 5695 5696 5696 5696 5696 5697 5697 5698 5697 5697 5697 5697 5696 5696 5695 5695 5695 5695 5694 5693 5693 5694 5695 5695 5696 5698 5699 5700 5701 5702 5703 5704 5706 5707 5707 5708
5651 5652 5654 5656 5658 5660 5661 5663 5664 5665 5666 5667 5669 5670 5671 5672 5673 5675 5675 5676 5678 5679 5680 5681 5682 5683 5684 5685 5686 5687 5687 5687 5687 5688 5688 5688 5688 5688 5689 5689 5689 5689 5690 5690 5690 5690 5691 5690 5690 5691 5692 5692 5693 5693 5693 5693 5694 5694 5694 5694 5694 5694 5693 5693 5692 5692 5693 5693 5692 5691 5691 5691 5692 5693 5694 5695 5696 5697 5699 5699 5700 5701 5703 5703 5704 5705
5649 5650 5652 5653 5655 5657 5658 5660 5662 5663 5664 5665 5666 5667 5668 5669 5670 5672 5672 5673 5674 5676 5677 5678 5679 5680 5681 5682 5683 5684 5684 5684 5684 5684 5684 5684 5684 5684 5685 5685 5685 5685 5686 5686 5686 5687 5687 5687 5687 5687 5688 5688 5689 5689 5689 5690 5690 5691 5691 5691 5691 5691 5690 5690 5689 5689 5690 5690 5690 5689 5688 5688 5688 5690 5691 5692 5693 5695 5696 5697 5697 5698 5699 5700 5701 5702
5647 5648 5650 5651 5653 5654 5656 5657 5659 5660 5661 5662 5663 5664 5665 5666 5668 5669 5669 5670 5671 5672 5673 5674 5675 5676 5677 5678 5679 5680 5680 5680 5680 5680 5680 5680 5680 5680 5681 5681 5681 5681 5681 5681 5682 5682 5682 5682 5683 5683 5683 5684 5685 5686 5685 5686 5686 5687 5687 5687 5687 5688 5687 5687 5686 5686 5687 5687 5687 5687 5686 5686 5686 5687 5688 5689 5691 5692 5693 5694 5694 5694 5695 5696 5698 5698
5644 5646 5647 5649 5650 5652 5653 5654 5656 5657 5658 5660 5661 5662 5663 5664 5665 5666 5667 5668 5669 5669 5670 5671 5671 5673 5673 5674 5675 5676 5676 5676 5676 5676 5676 5676 5676 5676 5677 5677 5677 5677 5677 5677 5677 5677 5677 5678 5678 5679 5679 5680 5681 5681 5681 5682 5682 5683 5684 5684 5684 5684 5684 5684 5683 5683 5684 5684 5684 5684 5685 5685 5686 5687 5687 5688 5688 5689 5689 5690 5690 5691 5692 5693 5694 5695
5642 5643 5645 5646 5648 5649 5651 5652 5653 5655 5656 5657 5659 5660 5661 5662 5663 5664 5665 5666 5666 5667 5668 5668 5669 5670 5671 5671 5672 5673 5673 5673 5673 5673 5673 5673 5673 5673 5672 5672 5672 5672 5672 5672 5673 5673 5673 5674 5674 5674 5675 5675 5675 5677 5678 5678 5678 5679 5680 5680 5680 5681 5681 5681 5680 5680 5681 5681 5681 5681 5682 5683 5684 5685 5685 5685 5685 5686 5686 5686 5686 5687 5688 5689 5690 5691
5640 5641 5643 5644 5645 5647 5648 5650 5651 5652 5654 5655 5656 5657 5659 5660 5661 5662 5663 5664 5665 5665 5666 5666 5667 5668 5668 5669 5669 5670 5670 5670 5670 5670 5670 5670 5669 5669 5669 5668 5668 5668 5668 5668 5668 5669 5669 5669 5669 5669 5670 5670 5671 5672 5674 5674 5674 5674 5675 5676 5676 5676 5677 5677 5677 5677 5677 5678 5678 5678 5679 5680 5681 5681 5681 5681 5681 5682 5682 5683 5683 5683 5684 5685 5686 5687
5638 5640 5641 5642 5643 5645 5646 5647 5648 5650 5651 5652 5654 5655 5656 5657 5658 5660 5661 5662 5663 5663 5664 5664 5665 5666 5666 5667 5667 5667 5667 5667 5667 5667 5667 5667 5666 5666 5666 5665 5665 5665 5665 5664 5665 5665 5665 5665 5665 5665 5665 5666 5667 5668 5668 5669 5669 5670 5670 5671 5672 5672 5672 5673 5674 5674 5674 5674 5675 5675 5675 5676 5677 5677 5677 5678 5677 5677 5678 5678 5679 5680 5681 5682 5682 5683
5636 5638 5639 5640 5642 5643 5644 5645 5646 5647 5649 5650 5652 5653 5654 5655 5656 5657 5658 5659 5660 5661 5662 5662 5663 5664 5664 5664 5665 5665 5665 5665 5664 5664 5664 5664 5663 5663 5663 5662 5662 5661 5661 5661 5661 5661 5660 5660 5660 5660 5660 5661 5662 5663 5663 5663 5664 5665 5665 5666 5667 5667 5668 5668 5669 5670 5670 5671 5671 5672 5672 5672 5672 5673 5674 5674 5674 5674 5674 5675 5676 5676 5677 5678 5678 5679
5635 5636 5637 5639 5640 5641 5642 5643 5644 5645 5646 5648 5650 5652 5653 5654 5655 5656 5657 5658 5658 5659 5660 5660 5661 5661 5662 5662 5662 5662 5662 5662 5662 5661 5661 5661 5660 5660 5659 5659 5658 5658 5657 5657 5657 5656 5656 5656 5656 5656 5656 5656 5657 5657 5658 5658 5658 5659 5660 5661 5661 5662 5663 5663 5664 5665 5666 5666 5666 5667 5668 5668 5669 5669 5670 5670 5671 5671 5672 5672 5673 5674 5674 5675 5675 5676
5634 5635 5636 5637 5638 5639 5640 5641 5642 5643 5645 5647 5649 5651 5652 5653 5654 5655 5656 5657 5657 5658 5658 5659 5659 5659 5659 5660 5660 5660 5659 5659 5658 5658 5658 5657 5657 5656 5656 5655 5655 5654 5654 5653 5653 5652 5652 5652 5651 5651 5651 5652 5652 5652 5653 5653 5653 5654 5654 5655 5656 5657 5658 5658 5659 5659 5660 5661 5662 5662 5663 5664 5665 5665 5666 5666 5667 5668 5668 5669 5670 5670 5671 5672 5672 5673
5633 5634 5636 5637 5638 5638 5639 5640 5641 5643 5645 5647 5649 5650 5651 5652 5653 5654 5655 5656 5656 5657 5657 5657 5658 5658 5658 5658 5657 5657 5656 5656 5655 5655 5654 5654 5653 5652 5652 5651 5651 5650 5650 5649 5649 5648 5647 5647 5647 5647 5647 5647 5647 5647 5648 5648 5648 5648 5649 5650 5651 5652 5653 5653 5654 5654 5655 5656 5657 5657 5658 5659 5660 5661 5662 5662 5663 5664 5665 5666 5666 5667 5668 5668 5669 5669
5632 5634 5635 5637 5638 5638 5639 5640 5642 5643 5645 5647 5649 5650 5651 5652 5653 5654 5654 5655 5655 5656 5656 5656 5656 5656 5656 5656 5655 5654 5653 5653 5652 5651 5650 5649 5649 5648 5647 5647 5646 5645 5645 5644 5644 5643 5643 5642 5642 5642 5642 5642 5642 5642 5642 5643 5643 5643 5644 5644 5645 5647 5648 5649 5649 5650 5650 5651 5652 5652 5653 5654 5655 5656 5658 5659 5659 5660 5661 5662 5663 5664 5664 5665 5665 5666
5632 5634 5635 5637 5639 5640 5641 5642 5643 5644 5646 5647 5648 5649 5651 5652 5653 5653 5654 5654 5654 5655 5655 5655 5655 5654 5654 5653 5652 5651 5650 5649 5648 5647 5646 5645 5644 5643 5642 5641 5640 5640 5639 5639 5638 5638 5637 5637 5637 5637 5637 5637 5637 5637 5637 5638 5638 5638 5639 5639 5640 5641 5642 5644 5645 5645 5646 5647 5647 5648 5648 5649 5650 5651 5653 5654 5655 5656 5657 5658 5658 5659 5660 5661 5661 5661